Radiation Dose at Monitoring Post of Fukushima Daini Nuclear Power Station
Date,Time,MP-1(microSv/h),MP-2(microSv/h),MP-3(microSv/h),MP-4(microSv/h),MP-5(microSv/h),MP-6(microSv/h),MP-7(microSv/h),Wind Direction,Wind Velocity(m/s),Rain
2022/05/19,00:00,0.149,0.139,0.219,0.213,0.216,0.121,0.077,south-southwest,3.9,No
2022/05/19,00:10,0.149,0.140,0.219,0.213,0.215,0.120,0.077,south-southwest,3.2,No
2022/05/19,00:20,0.149,0.140,0.218,0.213,0.216,0.120,0.077,west-southwest,1.4,No
2022/05/19,00:30,0.150,0.141,0.220,0.214,0.215,0.119,0.077,west,1.1,No
2022/05/19,00:40,0.150,0.141,0.218,0.213,0.216,0.121,0.077,west-northwest,0.7,No
2022/05/19,00:50,0.150,0.140,0.219,0.213,0.215,0.120,0.077,southwest,1.1,No
2022/05/19,01:00,0.150,0.141,0.219,0.214,0.216,0.120,0.076,-,CALM,No
2022/05/19,01:10,0.150,0.139,0.218,0.214,0.215,0.120,0.077,-,CALM,No
2022/05/19,01:20,0.151,0.141,0.218,0.213,0.215,0.120,0.077,south-southwest,1.2,No
2022/05/19,01:30,0.149,0.140,0.220,0.213,0.216,0.121,0.077,south,0.7,No
2022/05/19,01:40,0.150,0.140,0.219,0.212,0.216,0.120,0.078,south-southeast,1.5,No
2022/05/19,01:50,0.151,0.141,0.218,0.214,0.216,0.120,0.077,south-southeast,1.0,No
2022/05/19,02:00,0.150,0.140,0.219,0.214,0.217,0.121,0.078,-,CALM,No
2022/05/19,02:10,0.150,0.139,0.218,0.214,0.215,0.120,0.077,north-northeast,1.0,No
2022/05/19,02:20,0.150,0.141,0.218,0.213,0.217,0.120,0.077,north-northeast,1.6,No
2022/05/19,02:30,0.151,0.139,0.219,0.215,0.216,0.120,0.078,north,1.0,No
2022/05/19,02:40,0.150,0.140,0.220,0.213,0.215,0.120,0.078,north,1.3,No
2022/05/19,02:50,0.151,0.142,0.218,0.213,0.216,0.120,0.078,north-northeast,1.6,No
2022/05/19,03:00,0.149,0.140,0.219,0.214,0.215,0.121,0.078,north-northeast,1.1,No
2022/05/19,03:10,0.150,0.140,0.220,0.213,0.215,0.120,0.077,north-northeast,1.0,No
2022/05/19,03:20,0.149,0.141,0.218,0.212,0.215,0.120,0.077,north-northeast,1.4,No
2022/05/19,03:30,0.151,0.140,0.219,0.215,0.215,0.120,0.077,north,1.6,No
2022/05/19,03:40,0.150,0.140,0.218,0.213,0.215,0.120,0.077,north,1.3,No
2022/05/19,03:50,0.150,0.140,0.219,0.212,0.215,0.120,0.077,north-northwest,0.6,No
2022/05/19,04:00,0.150,0.140,0.217,0.215,0.216,0.121,0.077,-,CALM,No
2022/05/19,04:10,0.149,0.141,0.220,0.214,0.217,0.120,0.077,north,1.5,No
2022/05/19,04:20,0.150,0.140,0.219,0.212,0.215,0.121,0.077,north,1.2,No
2022/05/19,04:30,0.150,0.141,0.219,0.213,0.216,0.120,0.076,north-northwest,1.1,No
2022/05/19,04:40,0.151,0.140,0.218,0.213,0.214,0.121,0.077,north,1.3,No
2022/05/19,04:50,0.150,0.140,0.218,0.212,0.216,0.121,0.077,north-northeast,1.0,No
2022/05/19,05:00,0.151,0.139,0.219,0.212,0.215,0.119,0.077,north-northeast,0.8,No
2022/05/19,05:10,0.150,0.140,0.218,0.212,0.215,0.120,0.078,-,CALM,No
2022/05/19,05:20,0.149,0.141,0.218,0.212,0.216,0.121,0.077,east-northeast,1.0,No
2022/05/19,05:30,0.149,0.140,0.220,0.213,0.214,0.121,0.076,-,CALM,No
2022/05/19,05:40,0.150,0.140,0.217,0.212,0.215,0.120,0.077,-,CALM,No
2022/05/19,05:50,0.150,0.140,0.218,0.212,0.213,0.120,0.077,-,CALM,No
2022/05/19,06:00,0.150,0.141,0.219,0.214,0.216,0.120,0.077,-,CALM,No
2022/05/19,06:10,0.149,0.140,0.219,0.212,0.214,0.121,0.077,east,0.8,No
2022/05/19,06:20,0.150,0.140,0.218,0.212,0.216,0.119,0.077,east-southeast,0.8,No
2022/05/19,06:30,0.151,0.139,0.219,0.213,0.216,0.120,0.077,-,CALM,No
2022/05/19,06:40,0.150,0.139,0.218,0.212,0.215,0.120,0.077,east,1.2,No
2022/05/19,06:50,0.150,0.140,0.218,0.211,0.215,0.120,0.077,east-southeast,1.1,No
2022/05/19,07:00,0.149,0.139,0.218,0.212,0.215,0.120,0.076,east-southeast,0.9,No
2022/05/19,07:10,0.150,0.140,0.219,0.211,0.215,0.120,0.077,east-southeast,0.7,No
2022/05/19,07:20,0.150,0.140,0.218,0.212,0.216,0.120,0.077,east-southeast,0.6,No
2022/05/19,07:30,0.149,0.140,0.217,0.210,0.214,0.120,0.077,-,CALM,No
2022/05/19,07:40,0.150,0.140,0.218,0.213,0.216,0.119,0.077,east-northeast,2.2,No
2022/05/19,07:50,0.149,0.140,0.217,0.211,0.214,0.119,0.077,east-northeast,1.6,No
2022/05/19,08:00,0.150,0.140,0.216,0.210,0.216,0.119,0.076,east,0.9,No
2022/05/19,08:10,0.149,0.139,0.218,0.214,0.215,0.119,0.077,southeast,1.4,No
2022/05/19,08:20,0.150,0.139,0.216,0.212,0.214,0.120,0.076,-,CALM,No
2022/05/19,08:30,0.150,0.139,0.216,0.209,0.216,0.120,0.077,south-southeast,1.4,No
2022/05/19,08:40,0.150,0.139,0.220,0.212,0.214,0.119,0.078,southeast,1.7,No
2022/05/19,08:50,0.150,0.140,0.218,0.213,0.212,0.120,0.077,east-southeast,2.1,No
2022/05/19,09:00,0.148,0.139,0.217,0.212,0.216,0.120,0.076,southeast,2.1,No
2022/05/19,09:10,0.149,0.139,0.217,0.211,0.215,0.119,0.076,southeast,2.5,No
2022/05/19,09:20,0.150,0.141,0.219,0.212,0.214,0.120,0.077,southeast,2.3,No
2022/05/19,09:30,0.148,0.140,0.219,0.213,0.214,0.120,0.076,southeast,2.8,No
2022/05/19,09:40,0.149,0.139,0.217,0.212,0.216,0.119,-,south-southeast,2.4,No
2022/05/19,09:50,0.150,0.139,0.216,0.211,0.214,0.120,-,south-southeast,1.8,No
2022/05/19,10:00,0.149,0.140,0.218,0.210,0.214,0.120,-,-,CALM,No
2022/05/19,10:10,0.148,0.140,0.221,0.213,0.216,0.120,-,east-southeast,1.1,No
2022/05/19,10:20,0.149,0.140,0.219,0.214,0.217,0.120,-,southeast,1.0,No
2022/05/19,10:30,0.151,0.141,0.218,0.213,0.214,0.120,-,south-southeast,2.9,No
2022/05/19,10:40,0.150,0.142,0.217,0.211,0.213,0.120,-,south-southeast,3.8,No
2022/05/19,10:50,0.148,0.140,0.219,0.210,0.213,0.120,-,south-southeast,3.4,No
2022/05/19,11:00,0.148,0.139,0.221,0.213,0.216,0.120,-,south-southeast,4.2,No
2022/05/19,11:10,0.148,0.140,0.219,0.214,0.216,0.120,-,south-southeast,5.1,No
2022/05/19,11:20,0.151,0.141,0.218,0.214,0.214,0.121,-,south-southeast,5.3,No
2022/05/19,11:30,0.150,0.140,0.218,0.213,0.214,0.120,-,south-southeast,5.5,No
2022/05/19,11:40,0.150,0.140,0.217,0.212,0.212,0.120,-,south-southeast,5.6,No
2022/05/19,11:50,0.149,0.139,0.219,0.212,0.216,0.120,-,south-southeast,5.4,No
2022/05/19,12:00,0.148,0.140,0.220,0.214,0.217,0.121,-,south-southeast,6.5,No
2022/05/19,12:10,0.148,0.141,0.221,0.215,0.215,0.120,-,south-southeast,6.1,No
2022/05/19,12:20,0.149,0.140,0.219,0.211,0.214,0.120,-,south-southeast,6.2,No
2022/05/19,12:30,0.150,0.139,0.218,0.212,0.214,0.120,-,south-southeast,7.1,No
2022/05/19,12:40,0.151,0.139,0.218,0.212,0.212,0.120,-,south-southeast,9.0,No
2022/05/19,12:50,0.149,0.141,0.218,0.211,0.214,0.120,-,south-southeast,8.7,No
2022/05/19,13:00,0.149,0.141,0.217,0.214,0.213,0.121,-,south-southeast,9.2,No
2022/05/19,13:10,0.148,0.140,0.218,0.214,0.213,0.119,-,south-southeast,9.6,No
2022/05/19,13:20,0.148,0.138,0.220,0.214,0.217,0.120,-,south-southeast,9.5,No
2022/05/19,13:30,0.148,0.139,0.221,0.213,0.217,0.120,-,south-southeast,9.0,No
2022/05/19,13:40,0.150,0.140,0.219,0.212,0.216,0.120,-,south,8.8,No
2022/05/19,13:50,0.151,0.142,0.219,0.213,0.215,0.120,-,south,9.5,No
2022/05/19,14:00,0.151,0.141,0.219,0.215,0.213,0.120,-,south-southeast,8.3,No
2022/05/19,14:10,0.150,0.141,0.218,0.216,0.214,0.120,-,south,9.3,No
2022/05/19,14:20,0.149,0.141,0.217,0.214,0.213,0.120,-,south-southeast,7.9,No
2022/05/19,14:30,0.149,0.139,0.219,0.212,0.215,0.121,-,south,9.0,No
2022/05/19,14:40,0.149,0.140,0.218,0.213,0.214,0.121,-,south-southeast,8.8,No
2022/05/19,14:50,0.149,0.141,0.218,0.212,0.213,0.120,-,south,10.6,No
2022/05/19,15:00,0.148,0.141,0.219,0.214,0.215,0.120,-,south,11.1,No
2022/05/19,15:10,0.148,0.139,0.219,0.215,0.214,0.120,-,south,10.3,No
2022/05/19,15:20,0.149,0.139,0.219,0.215,0.216,0.119,-,south,10.3,No
2022/05/19,15:30,0.148,0.139,0.219,0.214,0.216,0.120,-,south,10.4,No
2022/05/19,15:40,0.149,0.140,0.220,0.213,0.215,0.120,-,south,10.0,No
2022/05/19,15:50,0.149,0.139,0.222,0.212,0.214,0.120,-,south,8.4,No
2022/05/19,16:00,0.150,0.141,0.220,0.215,0.215,0.120,-,south,8.8,No
2022/05/19,16:10,0.150,0.142,0.220,0.215,0.214,0.120,-,south,8.5,No
2022/05/19,16:20,0.151,0.140,0.221,0.214,0.214,0.120,-,south,8.5,No
2022/05/19,16:30,0.151,0.140,0.223,0.215,0.214,0.120,0.077,south,6.4,No
2022/05/19,16:40,0.150,0.141,0.221,0.216,0.215,0.120,0.077,south,6.6,No
2022/05/19,16:50,0.149,0.140,0.221,0.215,0.215,0.121,0.077,south,4.5,No
2022/05/19,17:00,0.151,0.140,0.222,0.213,0.219,0.120,0.076,south,5.3,No
2022/05/19,17:10,0.150,0.142,0.222,0.216,0.217,0.120,0.078,south,5.7,No
2022/05/19,17:20,0.149,0.140,0.219,0.215,0.215,0.120,0.077,south,4.3,No
2022/05/19,17:30,0.153,0.140,0.222,0.215,0.214,0.120,0.077,south-southwest,5.5,No
2022/05/19,17:40,0.150,0.141,0.221,0.216,0.215,0.120,0.077,south,5.1,No
2022/05/19,17:50,0.151,0.140,0.219,0.215,0.219,0.120,0.077,south-southwest,5.1,No
2022/05/19,18:00,0.151,0.141,0.223,0.214,0.216,0.121,0.076,south-southwest,6.1,No
2022/05/19,18:10,0.150,0.140,0.221,0.215,0.215,0.120,0.078,south-southwest,5.3,No
2022/05/19,18:20,0.151,0.140,0.219,0.216,0.218,0.119,0.077,south-southwest,4.9,No
2022/05/19,18:30,0.152,0.141,0.222,0.215,0.216,0.121,0.077,south,5.1,No
2022/05/19,18:40,0.149,0.141,0.221,0.216,0.217,0.120,0.078,south-southwest,5.5,No
2022/05/19,18:50,0.151,0.141,0.221,0.215,0.218,0.121,0.077,south,4.9,No
2022/05/19,19:00,0.150,0.140,0.221,0.214,0.214,0.121,0.077,south-southwest,4.2,No
2022/05/19,19:10,0.151,0.142,0.222,0.216,0.218,0.121,0.077,south-southwest,5.0,No
2022/05/19,19:20,0.151,0.140,0.222,0.214,0.216,0.120,0.077,south,5.4,No
2022/05/19,19:30,0.149,0.141,0.220,0.216,0.216,0.120,0.077,south,5.0,No
2022/05/19,19:40,0.151,0.140,0.221,0.214,0.216,0.121,0.076,south-southwest,4.6,No
2022/05/19,19:50,0.150,0.141,0.220,0.216,0.214,0.120,0.077,south-southwest,4.7,No
2022/05/19,20:00,0.151,0.141,0.222,0.216,0.218,0.121,0.076,south-southwest,4.6,No
2022/05/19,20:10,0.150,0.141,0.222,0.215,0.216,0.120,0.078,south-southwest,4.1,No
2022/05/19,20:20,0.152,0.141,0.222,0.215,0.217,0.119,0.077,south,4.4,No
2022/05/19,20:30,0.151,0.141,0.221,0.214,0.216,0.121,0.078,south,4.5,No
2022/05/19,20:40,0.151,0.142,0.223,0.217,0.215,0.120,0.077,south-southwest,4.7,No
2022/05/19,20:50,0.151,0.140,0.222,0.214,0.218,0.120,0.078,southwest,5.4,No
2022/05/19,21:00,0.150,0.141,0.222,0.216,0.216,0.120,0.078,southwest,4.2,No
2022/05/19,21:10,0.152,0.141,0.222,0.214,0.216,0.121,0.077,south-southwest,4.3,No
2022/05/19,21:20,0.150,0.141,0.220,0.216,0.217,0.121,0.077,south-southwest,3.2,No
2022/05/19,21:30,0.151,0.141,0.222,0.215,0.216,0.120,0.076,south-southwest,1.8,No
2022/05/19,21:40,0.150,0.140,0.221,0.215,0.218,0.121,0.078,south-southwest,1.6,No
2022/05/19,21:50,0.152,0.141,0.223,0.216,0.215,0.121,0.077,south-southwest,1.1,No
2022/05/19,22:00,0.150,0.142,0.221,0.215,0.219,0.121,0.078,southwest,2.7,No
2022/05/19,22:10,0.150,0.139,0.222,0.216,0.216,0.121,0.077,south-southwest,3.3,No
2022/05/19,22:20,0.151,0.142,0.222,0.215,0.217,0.121,0.078,southwest,3.3,No
2022/05/19,22:30,0.150,0.142,0.223,0.217,0.217,0.121,0.077,southwest,3.5,No
2022/05/19,22:40,0.151,0.141,0.220,0.215,0.217,0.122,0.078,southwest,4.2,No
2022/05/19,22:50,0.150,0.142,0.222,0.216,0.218,0.121,0.077,southwest,4.6,No
2022/05/19,23:00,0.153,0.141,0.221,0.215,0.215,0.121,0.078,southwest,5.1,No
2022/05/19,23:10,0.150,0.142,0.222,0.216,0.218,0.121,0.077,west-southwest,5.0,No
2022/05/19,23:20,0.151,0.141,0.220,0.215,0.215,0.121,0.077,southwest,4.1,No
2022/05/19,23:30,0.150,0.141,0.221,0.216,0.218,0.121,0.078,southwest,4.1,No
2022/05/19,23:40,0.150,0.141,0.222,0.214,0.216,0.122,0.078,west-southwest,3.6,No
2022/05/19,23:50,0.151,0.142,0.220,0.215,0.216,0.120,0.077,west-southwest,2.6,No
